![]() |
EMODnet Physics ERDDAP
Easier access to scientific data |
log in|
Brought to you by EMODnet Physics |
| Dataset Title: | NDBC - Collection of dew point temperature (DEWT) TimeSeries - IN SITU MultiPointTimeSeriesObservation
|
| Institution: | NDBC (Dataset ID: TS_DEWT_NDBC) |
| Information: | Summary
| License
| FGDC
| ISO 19115
| Metadata
| Background
| Subset
| Data Access Form
| Make a graph
|
| Name | Last modified | Size | Description | |
|---|---|---|---|---|
| Parent Directory | - | - | ||
| 41029_TS_DEWT_012006.nc | 26-Oct-2024 10:44 | 451344 | ||
| 41029_TS_DEWT_012007.nc | 26-Oct-2024 10:45 | 450471 | ||
| 41029_TS_DEWT_012008.nc | 26-Oct-2024 10:45 | 451361 | ||
| 41029_TS_DEWT_012009.nc | 26-Oct-2024 10:45 | 450087 | ||
| 41029_TS_DEWT_012010.nc | 26-Oct-2024 10:45 | 450856 | ||
| 41029_TS_DEWT_012011.nc | 26-Oct-2024 10:45 | 447728 | ||
| 41029_TS_DEWT_012012.nc | 26-Oct-2024 10:45 | 448347 | ||
| 41029_TS_DEWT_012013.nc | 26-Oct-2024 10:45 | 447399 | ||
| 41029_TS_DEWT_012014.nc | 26-Oct-2024 10:45 | 448306 | ||
| 41029_TS_DEWT_012015.nc | 26-Oct-2024 10:45 | 447580 | ||
| 41029_TS_DEWT_012016.nc | 26-Oct-2024 10:45 | 448389 | ||
| 41029_TS_DEWT_012017.nc | 26-Oct-2024 10:45 | 447682 | ||
| 41029_TS_DEWT_012018.nc | 26-Oct-2024 10:45 | 447966 | ||
| 41029_TS_DEWT_012019.nc | 26-Oct-2024 10:45 | 437167 | ||
| 41029_TS_DEWT_012020.nc | 26-Oct-2024 10:45 | 449756 | ||
| 41029_TS_DEWT_012021.nc | 26-Oct-2024 10:46 | 435308 | ||
| 41029_TS_DEWT_012022.nc | 26-Oct-2024 10:46 | 451211 | ||
| 41029_TS_DEWT_012024.nc | 26-Oct-2024 10:46 | 450855 | ||
| 41029_TS_DEWT_012025.nc | 07-Feb-2025 12:01 | 450845 | ||
| 41029_TS_DEWT_012026.nc | 02-Feb-2026 20:24 | 440173 | ||
| 41029_TS_DEWT_022005.nc | 26-Oct-2024 10:46 | 450951 | ||
| 41029_TS_DEWT_022006.nc | 26-Oct-2024 10:46 | 450259 | ||
| 41029_TS_DEWT_022007.nc | 26-Oct-2024 10:46 | 450696 | ||
| 41029_TS_DEWT_022008.nc | 26-Oct-2024 10:46 | 442844 | ||
| 41029_TS_DEWT_022009.nc | 26-Oct-2024 10:46 | 450988 | ||
| 41029_TS_DEWT_022010.nc | 26-Oct-2024 10:46 | 450312 | ||
| 41029_TS_DEWT_022011.nc | 26-Oct-2024 10:46 | 450874 | ||
| 41029_TS_DEWT_022012.nc | 26-Oct-2024 10:46 | 449250 | ||
| 41029_TS_DEWT_022013.nc | 26-Oct-2024 10:46 | 431694 | ||
| 41029_TS_DEWT_022014.nc | 26-Oct-2024 10:46 | 449160 | ||
| 41029_TS_DEWT_022015.nc | 26-Oct-2024 10:46 | 449737 | ||
| 41029_TS_DEWT_022016.nc | 26-Oct-2024 10:46 | 449856 | ||
| 41029_TS_DEWT_022017.nc | 26-Oct-2024 10:47 | 449850 | ||
| 41029_TS_DEWT_022018.nc | 26-Oct-2024 10:47 | 449464 | ||
| 41029_TS_DEWT_022019.nc | 26-Oct-2024 10:47 | 449311 | ||
| 41029_TS_DEWT_022020.nc | 26-Oct-2024 10:47 | 448927 | ||
| 41029_TS_DEWT_022021.nc | 26-Oct-2024 10:47 | 450767 | ||
| 41029_TS_DEWT_022022.nc | 26-Oct-2024 10:47 | 449976 | ||
| 41029_TS_DEWT_022024.nc | 16-Sep-2024 16:51 | 450263 | ||
| 41029_TS_DEWT_022025.nc | 01-Mar-2025 09:09 | 442521 | ||
| 41029_TS_DEWT_022026.nc | 01-Mar-2026 12:12 | 450696 | ||
| 41029_TS_DEWT_032005.nc | 26-Oct-2024 10:47 | 449531 | ||
| 41029_TS_DEWT_032006.nc | 26-Oct-2024 10:47 | 450823 | ||
| 41029_TS_DEWT_032007.nc | 26-Oct-2024 10:47 | 450002 | ||
| 41029_TS_DEWT_032008.nc | 26-Oct-2024 10:47 | 430164 | ||
| 41029_TS_DEWT_032009.nc | 26-Oct-2024 10:47 | 449656 | ||
| 41029_TS_DEWT_032010.nc | 26-Oct-2024 10:47 | 450707 | ||
| 41029_TS_DEWT_032011.nc | 26-Oct-2024 10:47 | 424191 | ||
| 41029_TS_DEWT_032012.nc | 26-Oct-2024 10:48 | 449003 | ||
| 41029_TS_DEWT_032013.nc | 26-Oct-2024 10:48 | 450163 | ||
| 41029_TS_DEWT_032014.nc | 26-Oct-2024 10:48 | 449490 | ||
| 41029_TS_DEWT_032015.nc | 26-Oct-2024 10:48 | 450251 | ||
| 41029_TS_DEWT_032016.nc | 26-Oct-2024 10:48 | 430043 | ||
| 41029_TS_DEWT_032017.nc | 26-Oct-2024 10:48 | 448269 | ||
| 41029_TS_DEWT_032018.nc | 26-Oct-2024 10:48 | 449881 | ||
| 41029_TS_DEWT_032019.nc | 26-Oct-2024 10:48 | 450304 | ||
| 41029_TS_DEWT_032020.nc | 26-Oct-2024 10:48 | 450382 | ||
| 41029_TS_DEWT_032021.nc | 26-Oct-2024 10:48 | 450240 | ||
| 41029_TS_DEWT_032022.nc | 26-Oct-2024 10:48 | 450098 | ||
| 41029_TS_DEWT_032023.nc | 26-Oct-2024 10:48 | 450444 | ||
| 41029_TS_DEWT_032025.nc | 02-Apr-2025 07:22 | 451328 | ||
| 41029_TS_DEWT_032026.nc | 23-Mar-2026 13:04 | 449986 | ||
| 41029_TS_DEWT_042005.nc | 26-Oct-2024 10:48 | 451681 | ||
| 41029_TS_DEWT_042006.nc | 26-Oct-2024 10:48 | 430616 | ||
| 41029_TS_DEWT_042007.nc | 26-Oct-2024 10:48 | 449819 | ||
| 41029_TS_DEWT_042008.nc | 26-Oct-2024 10:49 | 450124 | ||
| 41029_TS_DEWT_042009.nc | 26-Oct-2024 10:49 | 450537 | ||
| 41029_TS_DEWT_042010.nc | 26-Oct-2024 10:49 | 449709 | ||
| 41029_TS_DEWT_042011.nc | 26-Oct-2024 10:49 | 449003 | ||
| 41029_TS_DEWT_042012.nc | 26-Oct-2024 10:49 | 450303 | ||
| 41029_TS_DEWT_042013.nc | 26-Oct-2024 10:49 | 449153 | ||
| 41029_TS_DEWT_042014.nc | 26-Oct-2024 10:49 | 433903 | ||
| 41029_TS_DEWT_042015.nc | 26-Oct-2024 10:49 | 450528 | ||
| 41029_TS_DEWT_042016.nc | 26-Oct-2024 10:49 | 450770 | ||
| 41029_TS_DEWT_042017.nc | 26-Oct-2024 10:49 | 450938 | ||
| 41029_TS_DEWT_042018.nc | 26-Oct-2024 10:49 | 451461 | ||
| 41029_TS_DEWT_042019.nc | 26-Oct-2024 10:49 | 440062 | ||
| 41029_TS_DEWT_042020.nc | 26-Oct-2024 10:49 | 451519 | ||
| 41029_TS_DEWT_042021.nc | 26-Oct-2024 10:49 | 450252 | ||
| 41029_TS_DEWT_042022.nc | 26-Oct-2024 10:49 | 451150 | ||
| 41029_TS_DEWT_042023.nc | 26-Oct-2024 10:49 | 449802 | ||
| 41029_TS_DEWT_042025.nc | 01-May-2025 04:45 | 448344 | ||
| 41029_TS_DEWT_052005.nc | 26-Oct-2024 10:50 | 450178 | ||
| 41029_TS_DEWT_052006.nc | 26-Oct-2024 10:50 | 449871 | ||
| 41029_TS_DEWT_052007.nc | 26-Oct-2024 10:50 | 449859 | ||
| 41029_TS_DEWT_052008.nc | 26-Oct-2024 10:50 | 449602 | ||
| 41029_TS_DEWT_052009.nc | 26-Oct-2024 10:50 | 450126 | ||
| 41029_TS_DEWT_052010.nc | 26-Oct-2024 10:50 | 447405 | ||
| 41029_TS_DEWT_052012.nc | 26-Oct-2024 10:50 | 448693 | ||
| 41029_TS_DEWT_052013.nc | 26-Oct-2024 10:50 | 448901 | ||
| 41029_TS_DEWT_052014.nc | 26-Oct-2024 10:50 | 448535 | ||
| 41029_TS_DEWT_052015.nc | 26-Oct-2024 10:50 | 450615 | ||
| 41029_TS_DEWT_052016.nc | 26-Oct-2024 10:50 | 449731 | ||
| 41029_TS_DEWT_052017.nc | 26-Oct-2024 10:50 | 450059 | ||
| 41029_TS_DEWT_052018.nc | 26-Oct-2024 10:50 | 450590 | ||
| 41029_TS_DEWT_052019.nc | 26-Oct-2024 10:50 | 451052 | ||
| 41029_TS_DEWT_052020.nc | 26-Oct-2024 10:50 | 450627 | ||
| 41029_TS_DEWT_052021.nc | 26-Oct-2024 10:51 | 450329 | ||
| 41029_TS_DEWT_052022.nc | 26-Oct-2024 10:51 | 451102 | ||
| 41029_TS_DEWT_052023.nc | 26-Oct-2024 10:51 | 450103 | ||
| 41029_TS_DEWT_052025.nc | 01-Jun-2025 04:56 | 449961 | ||
| 41029_TS_DEWT_062005.nc | 26-Oct-2024 10:51 | 449591 | ||
| 41029_TS_DEWT_062006.nc | 26-Oct-2024 10:51 | 449994 | ||
| 41029_TS_DEWT_062007.nc | 26-Oct-2024 10:51 | 448609 | ||
| 41029_TS_DEWT_062008.nc | 26-Oct-2024 10:51 | 450284 | ||
| 41029_TS_DEWT_062009.nc | 26-Oct-2024 10:51 | 449581 | ||
| 41029_TS_DEWT_062010.nc | 26-Oct-2024 10:51 | 450705 | ||
| 41029_TS_DEWT_062011.nc | 26-Oct-2024 10:51 | 447692 | ||
| 41029_TS_DEWT_062012.nc | 26-Oct-2024 10:51 | 449720 | ||
| 41029_TS_DEWT_062013.nc | 26-Oct-2024 10:51 | 450445 | ||
| 41029_TS_DEWT_062014.nc | 26-Oct-2024 10:51 | 449989 | ||
| 41029_TS_DEWT_062015.nc | 26-Oct-2024 10:51 | 449908 | ||
| 41029_TS_DEWT_062016.nc | 26-Oct-2024 10:52 | 448492 | ||
| 41029_TS_DEWT_062017.nc | 26-Oct-2024 10:52 | 450071 | ||
| 41029_TS_DEWT_062018.nc | 26-Oct-2024 10:52 | 450558 | ||
| 41029_TS_DEWT_062019.nc | 26-Oct-2024 10:52 | 449657 | ||
| 41029_TS_DEWT_062020.nc | 26-Oct-2024 10:52 | 450713 | ||
| 41029_TS_DEWT_062021.nc | 26-Oct-2024 10:52 | 450574 | ||
| 41029_TS_DEWT_062022.nc | 26-Oct-2024 10:52 | 449267 | ||
| 41029_TS_DEWT_062023.nc | 26-Oct-2024 10:52 | 451603 | ||
| 41029_TS_DEWT_062025.nc | 01-Jul-2025 05:03 | 450784 | ||
| 41029_TS_DEWT_072005.nc | 26-Oct-2024 10:52 | 451159 | ||
| 41029_TS_DEWT_072006.nc | 26-Oct-2024 10:52 | 450768 | ||
| 41029_TS_DEWT_072007.nc | 26-Oct-2024 10:52 | 449418 | ||
| 41029_TS_DEWT_072009.nc | 26-Oct-2024 10:52 | 420198 | ||
| 41029_TS_DEWT_072010.nc | 26-Oct-2024 10:52 | 451654 | ||
| 41029_TS_DEWT_072011.nc | 26-Oct-2024 10:52 | 426723 | ||
| 41029_TS_DEWT_072012.nc | 26-Oct-2024 10:52 | 450885 | ||
| 41029_TS_DEWT_072013.nc | 26-Oct-2024 10:52 | 450930 | ||
| 41029_TS_DEWT_072014.nc | 26-Oct-2024 10:52 | 451005 | ||
| 41029_TS_DEWT_072015.nc | 26-Oct-2024 10:52 | 450936 | ||
| 41029_TS_DEWT_072016.nc | 26-Oct-2024 10:53 | 450915 | ||
| 41029_TS_DEWT_072017.nc | 26-Oct-2024 10:53 | 449741 | ||
| 41029_TS_DEWT_072018.nc | 26-Oct-2024 10:53 | 449914 | ||
| 41029_TS_DEWT_072019.nc | 26-Oct-2024 10:53 | 1268403 | ||
| 41029_TS_DEWT_072020.nc | 26-Oct-2024 10:53 | 1269251 | ||
| 41029_TS_DEWT_072021.nc | 26-Oct-2024 10:53 | 1272018 | ||
| 41029_TS_DEWT_072022.nc | 26-Oct-2024 10:53 | 1267931 | ||
| 41029_TS_DEWT_072023.nc | 26-Oct-2024 10:53 | 1265939 | ||
| 41029_TS_DEWT_072025.nc | 01-Aug-2025 05:12 | 1218438 | ||
| 41029_TS_DEWT_082005.nc | 26-Oct-2024 10:53 | 1265349 | ||
| 41029_TS_DEWT_082006.nc | 26-Oct-2024 10:53 | 1266279 | ||
| 41029_TS_DEWT_082007.nc | 26-Oct-2024 10:53 | 4877091 | ||
| 41029_TS_DEWT_082008.nc | 26-Oct-2024 10:53 | 3413496 | ||
| 41029_TS_DEWT_082009.nc | 26-Oct-2024 10:53 | 448463 | ||
| 41029_TS_DEWT_082010.nc | 26-Oct-2024 10:53 | 441022 | ||
| 41029_TS_DEWT_082011.nc | 26-Oct-2024 10:53 | 447337 | ||
| 41029_TS_DEWT_082012.nc | 26-Oct-2024 10:53 | 435238 | ||
| 41029_TS_DEWT_082013.nc | 26-Oct-2024 10:54 | 447613 | ||
| 41029_TS_DEWT_082014.nc | 26-Oct-2024 10:54 | 448006 | ||
| 41029_TS_DEWT_082015.nc | 26-Oct-2024 10:54 | 448351 | ||
| 41029_TS_DEWT_082016.nc | 26-Oct-2024 10:54 | 447039 | ||
| 41029_TS_DEWT_082017.nc | 26-Oct-2024 10:54 | 447511 | ||
| 41029_TS_DEWT_082018.nc | 26-Oct-2024 10:54 | 447678 | ||
| 41029_TS_DEWT_082019.nc | 26-Oct-2024 10:54 | 1078932 | ||
| 41029_TS_DEWT_082020.nc | 26-Oct-2024 10:54 | 1029089 | ||
| 41029_TS_DEWT_082021.nc | 26-Oct-2024 10:54 | 1027828 | ||
| 41029_TS_DEWT_082022.nc | 26-Oct-2024 10:54 | 1028423 | ||
| 41029_TS_DEWT_082023.nc | 26-Oct-2024 10:54 | 1107951 | ||
| 41029_TS_DEWT_082025.nc | 01-Sep-2025 05:01 | 1008793 | ||
| 41029_TS_DEWT_092005.nc | 26-Oct-2024 10:54 | 1029708 | ||
| 41029_TS_DEWT_092006.nc | 26-Oct-2024 10:54 | 1027182 | ||
| 41029_TS_DEWT_092007.nc | 26-Oct-2024 10:54 | 3492398 | ||
| 41029_TS_DEWT_092008.nc | 26-Oct-2024 10:54 | 5131329 | ||
| 41029_TS_DEWT_092009.nc | 26-Oct-2024 10:55 | 450434 | ||
| 41029_TS_DEWT_092010.nc | 26-Oct-2024 10:55 | 437195 | ||
| 41029_TS_DEWT_092011.nc | 26-Oct-2024 10:55 | 450150 | ||
| 41029_TS_DEWT_092012.nc | 26-Oct-2024 10:55 | 450582 | ||
| 41029_TS_DEWT_092013.nc | 26-Oct-2024 10:55 | 450843 | ||
| 41029_TS_DEWT_092014.nc | 26-Oct-2024 10:55 | 450150 | ||
| 41029_TS_DEWT_092015.nc | 26-Oct-2024 10:55 | 450936 | ||
| 41029_TS_DEWT_092016.nc | 26-Oct-2024 10:55 | 450291 | ||
| 41029_TS_DEWT_092017.nc | 26-Oct-2024 10:55 | 450156 | ||
| 41029_TS_DEWT_092018.nc | 26-Oct-2024 10:55 | 1210639 | ||
| 41029_TS_DEWT_092019.nc | 26-Oct-2024 10:55 | 1267532 | ||
| 41029_TS_DEWT_092020.nc | 26-Oct-2024 10:55 | 1267360 | ||
| 41029_TS_DEWT_092021.nc | 26-Oct-2024 10:55 | 1268326 | ||
| 41029_TS_DEWT_092022.nc | 26-Oct-2024 10:55 | 1240117 | ||
| 41029_TS_DEWT_092023.nc | 26-Oct-2024 10:55 | 989190 | ||
| 41029_TS_DEWT_092025.nc | 01-Oct-2025 04:47 | 1267545 | ||
| 41029_TS_DEWT_102006.nc | 26-Oct-2024 10:56 | 1267097 | ||
| 41029_TS_DEWT_102007.nc | 26-Oct-2024 10:56 | 4059916 | ||
| 41029_TS_DEWT_102008.nc | 26-Oct-2024 10:56 | 4110647 | ||
| 41029_TS_DEWT_102009.nc | 26-Oct-2024 10:56 | 449433 | ||
| 41029_TS_DEWT_102010.nc | 26-Oct-2024 10:56 | 450417 | ||
| 41029_TS_DEWT_102011.nc | 26-Oct-2024 10:56 | 430141 | ||
| 41029_TS_DEWT_102012.nc | 26-Oct-2024 10:56 | 448921 | ||
| 41029_TS_DEWT_102013.nc | 26-Oct-2024 10:56 | 449967 | ||
| 41029_TS_DEWT_102014.nc | 26-Oct-2024 10:56 | 450180 | ||
| 41029_TS_DEWT_102015.nc | 26-Oct-2024 10:56 | 449609 | ||
| 41029_TS_DEWT_102016.nc | 26-Oct-2024 10:56 | 449045 | ||
| 41029_TS_DEWT_102017.nc | 26-Oct-2024 10:56 | 449786 | ||
| 41029_TS_DEWT_102018.nc | 26-Oct-2024 10:57 | 449150 | ||
| 41029_TS_DEWT_102019.nc | 26-Oct-2024 10:57 | 1111918 | ||
| 41029_TS_DEWT_102020.nc | 26-Oct-2024 10:57 | 1110351 | ||
| 41029_TS_DEWT_102021.nc | 26-Oct-2024 10:57 | 1116085 | ||
| 41029_TS_DEWT_102022.nc | 26-Oct-2024 10:57 | 1114117 | ||
| 41029_TS_DEWT_102023.nc | 26-Oct-2024 10:57 | 1047205 | ||
| 41029_TS_DEWT_102024.nc | 12-Jan-2025 20:57 | 1039769 | ||
| 41029_TS_DEWT_102025.nc | 01-Nov-2025 07:49 | 1112552 | ||
| 41029_TS_DEWT_112005.nc | 26-Oct-2024 10:57 | 1112177 | ||
| 41029_TS_DEWT_112006.nc | 26-Oct-2024 10:57 | 4702799 | ||
| 41029_TS_DEWT_112007.nc | 26-Oct-2024 10:57 | 451353 | ||
| 41029_TS_DEWT_112008.nc | 26-Oct-2024 10:57 | 450967 | ||
| 41029_TS_DEWT_112009.nc | 26-Oct-2024 10:57 | 449895 | ||
| 41029_TS_DEWT_112010.nc | 26-Oct-2024 10:57 | 449776 | ||
| 41029_TS_DEWT_112011.nc | 26-Oct-2024 10:57 | 449599 | ||
| 41029_TS_DEWT_112012.nc | 26-Oct-2024 10:57 | 451297 | ||
| 41029_TS_DEWT_112013.nc | 26-Oct-2024 10:57 | 449660 | ||
| 41029_TS_DEWT_112014.nc | 26-Oct-2024 10:57 | 451190 | ||
| 41029_TS_DEWT_112015.nc | 26-Oct-2024 10:57 | 420057 | ||
| 41029_TS_DEWT_112016.nc | 26-Oct-2024 10:57 | 449947 | ||
| 41029_TS_DEWT_112017.nc | 26-Oct-2024 10:58 | 1263215 | ||
| 41029_TS_DEWT_112018.nc | 26-Oct-2024 10:58 | 1110886 | ||
| 41029_TS_DEWT_112019.nc | 26-Oct-2024 10:58 | 1265667 | ||
| 41029_TS_DEWT_112020.nc | 26-Oct-2024 10:58 | 1263800 | ||
| 41029_TS_DEWT_112021.nc | 26-Oct-2024 10:58 | 1234023 | ||
| 41029_TS_DEWT_112022.nc | 26-Oct-2024 10:58 | 1189909 | ||
| 41029_TS_DEWT_112023.nc | 26-Oct-2024 10:58 | 1262480 | ||
| 41029_TS_DEWT_112024.nc | 17-Jan-2025 15:12 | 1265193 | ||
| 41029_TS_DEWT_112025.nc | 01-Dec-2025 09:47 | 5509879 | ||
| 41029_TS_DEWT_122005.nc | 26-Oct-2024 10:58 | 450089 | ||
| 41029_TS_DEWT_122006.nc | 26-Oct-2024 10:58 | 449420 | ||
| 41029_TS_DEWT_122007.nc | 26-Oct-2024 10:58 | 449264 | ||
| 41029_TS_DEWT_122008.nc | 26-Oct-2024 10:58 | 450097 | ||
| 41029_TS_DEWT_122009.nc | 26-Oct-2024 10:58 | 450089 | ||
| 41029_TS_DEWT_122010.nc | 26-Oct-2024 10:58 | 449299 | ||
| 41029_TS_DEWT_122011.nc | 26-Oct-2024 10:58 | 448978 | ||
| 41029_TS_DEWT_122012.nc | 26-Oct-2024 10:59 | 448933 | ||
| 41029_TS_DEWT_122013.nc | 26-Oct-2024 10:59 | 448082 | ||
| 41029_TS_DEWT_122014.nc | 26-Oct-2024 10:59 | 1109243 | ||
| 41029_TS_DEWT_122015.nc | 26-Oct-2024 10:59 | 1112593 | ||
| 41029_TS_DEWT_122016.nc | 26-Oct-2024 10:59 | 1110704 | ||
| 41029_TS_DEWT_122017.nc | 26-Oct-2024 10:59 | 1027797 | ||
| 41029_TS_DEWT_122018.nc | 26-Oct-2024 10:59 | 1112548 | ||
| 41029_TS_DEWT_122019.nc | 26-Oct-2024 10:59 | 1090521 | ||
| 41029_TS_DEWT_122020.nc | 26-Oct-2024 10:59 | 1113022 | ||
| 41029_TS_DEWT_122021.nc | 26-Oct-2024 10:59 | 1111523 | ||
| 41029_TS_DEWT_122022.nc | 26-Oct-2024 10:59 | 5245687 | ||
| 41029_TS_DEWT_122023.nc | 26-Oct-2024 11:00 | 449836 | ||
| 41029_TS_DEWT_122024.nc | 22-Jan-2025 16:44 | 450200 | ||
| 41029_TS_DEWT_122025.nc | 01-Jan-2026 09:24 | 451456 | ||